This demonstration page uses our WeatherBlox Daily Observations layout. Learn more.

Hourly Observations for August 16, 2018

Temp ( °F °C ) Dew Point ( °F °C ) Humidity (%) Winds ( mph kmh ) Pressure ( in mb ) Visibility ( mi km ) Precip ( " mm )
12:15 am 00:15 Clear 67 19.4 66 18.7 96 96 E 6 9 29.94 1014 10 16.09344 0 0
12:35 am 00:35 Clear 66 18.7 65 18.5 99 99 ENE 7 11 29.94 1014 7 11.265408 0 0
12:55 am 00:55 Partly Cloudy 66 19 66 18.8 99 99 E 7 11 29.94 1014 7 11.265408 0 0
1:15 am 01:15 Mostly Cloudy 67 19.6 66 19.1 97 97 E 7 11 29.88 1012 10 16.09344 0 0
1:35 am 01:35 Partly Cloudy 67 19.3 66 19 98 98 ESE 5 7 29.88 1012 10 16.09344 0 0
1:55 am 01:55 Partly Cloudy 67 19.3 66 19 98 98 E 3 6 29.88 1012 10 16.09344 0 0
2:15 am 02:15 Partly Cloudy 66 19 66 18.7 98 98 Calm 29.91 1013 10 16.09344 0 0
2:35 am 02:35 Partly Cloudy 66 18.9 65 18.6 98 98 SE 3 6 29.94 1014 10 16.09344 0 0
2:55 am 02:55 Clear 65 18.4 65 18.1 98 98 SSE 6 9 29.91 1013 10 16.09344 0 0
3:15 am 03:15 Clear 65 18.3 65 18.1 99 99 SE 3 6 29.94 1014 7 11.265408 0 0
3:35 am 03:35 Clear 65 18.6 65 18.5 99 99 S 3 6 29.94 1014 10 16.09344 0 0
3:55 am 03:55 Clear 64 17.5 63 17.3 99 99 Calm 29.94 1014 7 11.265408 0 0
4:15 am 04:15 Clear with Mist and Fog 63 17.2 63 17.2 100 100 Calm 29.94 1014 5 8.04672 0 0
4:35 am 04:35 Clear with Mist and Fog 63 17 63 17 100 100 NNE 5 7 29.94 1014 4 6.437376 0 0
4:55 am 04:55 Mostly Cloudy with Mist and Fog 63 17.4 63 17.4 100 100 NNE 6 9 29.94 1014 5 8.04672 0 0
5:15 am 05:15 Cloudy 65 18.2 65 18.2 100 100 NNE 8 13 29.97 1015 7 11.265408 0 0
5:35 am 05:35 Cloudy with Mist and Fog 65 18.6 65 18.6 100 100 NE 10 17 29.97 1015 4 6.437376 0 0
5:55 am 05:55 Cloudy with Mist and Fog 66 18.7 66 18.7 100 100 NE 10 17 29.97 1015 2.5 4.02336 0 0
6:15 am 06:15 Cloudy with Mist and Fog 64 18 64 18 100 100 NE 15 24 29.97 1015 5 8.04672 0 0
6:35 am 06:35 Cloudy 64 17.6 64 17.6 100 100 ENE 12 19 29.97 1015 10 16.09344 0 0
6:55 am 06:55 Cloudy 64 17.5 63 17.2 98 98 ENE 7 11 29.97 1015 10 16.09344 0 0
7:15 am 07:15 Cloudy 64 17.5 63 17.1 98 98 ENE 10 17 29.97 1015 10 16.09344 0 0
7:35 am 07:35 Cloudy 63 17.3 62 16.9 98 98 ENE 9 15 29.97 1015 10 16.09344 0 0
7:55 am 07:55 Mostly Cloudy with Light Rain 64 17.5 63 17 97 97 E 7 11 29.97 1015 10 16.09344 0 0
8:15 am 08:15 Partly Cloudy 64 17.8 63 17.1 96 96 E 6 9 30 1016 10 16.09344 0 0
8:35 am 08:35 Sunny 64 18 63 17.1 95 95 E 9 15 29.97 1015 10 16.09344 0 0
8:55 am 08:55 Partly Cloudy 65 18.2 63 17.4 95 95 E 9 15 29.97 1015 10 16.09344 0 0
9:15 am 09:15 Partly Cloudy 67 19.5 64 17.9 91 91 E 8 13 30 1016 10 16.09344 0 0
9:35 am 09:35 Partly Cloudy 68 20.2 64 17.7 86 86 E 7 11 29.97 1015 10 16.09344 0 0
9:55 am 09:55 Partly Cloudy 70 21.1 65 18.5 85 85 E 9 15 29.97 1015 10 16.09344 0 0
10:15 am 10:15 Partly Cloudy 72 22 65 18.1 79 79 E 12 19 29.97 1015 10 16.09344 0 0
10:35 am 10:35 Sunny 73 22.7 65 18.5 77 77 E 12 19 29.97 1015 10 16.09344 0 0
10:55 am 10:55 Sunny 74 23.4 67 19.2 77 77 ESE 8 13 29.97 1015 10 16.09344 0 0
11:15 am 11:15 Sunny 75 23.7 67 19.4 77 77 E 10 17 29.94 1014 10 16.09344 0 0
11:35 am 11:35 Mostly Cloudy 75 23.7 67 19.6 78 78 E 8 13 29.94 1014 10 16.09344 0 0
11:55 am 11:55 Cloudy 76 24.3 67 19.5 75 75 ESE 10 17 29.94 1014 10 16.09344 0 0
12:15 pm 12:15 Mostly Cloudy 77 24.9 68 20.1 75 75 ESE 9 15 29.94 1014 10 16.09344 0 0
12:35 pm 12:35 Cloudy 76 24.5 68 19.8 75 75 E 9 15 29.94 1014 10 16.09344 0 0
12:55 pm 12:55 Cloudy 77 24.9 68 20.2 75 75 ESE 7 11 29.94 1014 10 16.09344 0 0
1:15 pm 13:15 Cloudy 77 25.1 69 20.3 75 75 ESE 8 13 29.94 1014 10 16.09344 0 0
1:35 pm 13:35 Cloudy 77 25 69 20.4 76 76 E 6 9 29.94 1014 10 16.09344 0 0
1:55 pm 13:55 Cloudy 77 24.8 68 20.1 75 75 E 7 11 29.94 1014 10 16.09344 0 0
2:15 pm 14:15 Mostly Cloudy 79 26 69 20.5 72 72 ESE 3 6 29.94 1014 10 16.09344 0 0
2:35 pm 14:35 Mostly Cloudy 80 26.5 69 20.8 71 71 ENE 6 9 29.94 1014 10 16.09344 0 0
2:55 pm 14:55 Mostly Cloudy 79 26.1 68 19.9 69 69 Calm 29.94 1014 10 16.09344 0 0
3:15 pm 15:15 Mostly Cloudy 80 26.4 70 20.9 72 72 NE 7 11 29.94 1014 10 16.09344 0 0
3:35 pm 15:35 Partly Cloudy 80 26.6 70 21 71 71 E 8 13 29.94 1014 10 16.09344 0 0
3:55 pm 15:55 Partly Cloudy 80 26.7 68 19.8 66 66 NE 5 7 29.94 1014 10 16.09344 0 0
4:15 pm 16:15 Partly Cloudy 80 26.6 69 20.5 69 69 E 7 11 29.94 1014 10 16.09344 0 0
4:35 pm 16:35 Sunny 80 26.6 68 20 67 67 E 6 9 29.94 1014 10 16.09344 0 0
4:55 pm 16:55 Sunny 80 26.7 67 19.5 65 65 E 5 7 29.94 1014 10 16.09344 0 0
5:15 pm 17:15 Sunny 80 26.8 68 20.2 67 67 E 6 9 29.94 1014 10 16.09344 0 0
5:35 pm 17:35 Partly Cloudy 80 26.7 67 19.7 66 66 NE 5 7 29.94 1014 10 16.09344 0 0
5:55 pm 17:55 Partly Cloudy 80 26.6 67 19.6 66 66 ENE 5 7 29.94 1014 10 16.09344 0 0
6:15 pm 18:15 Sunny 80 26.5 66 19.1 64 64 ENE 3 6 29.94 1014 10 16.09344 0 0
6:35 pm 18:35 Sunny 80 26.5 67 19.6 66 66 E 5 7 29.94 1014 10 16.09344 0 0
6:55 pm 18:55 Sunny 79 26 68 19.9 69 69 ENE 5 7 29.94 1014 10 16.09344 0 0
7:15 pm 19:15 Sunny 78 25.6 69 20.5 73 73 E 3 6 29.94 1014 10 16.09344 0 0
7:35 pm 19:35 Sunny 77 25 70 21.2 80 80 ENE 3 6 29.94 1014 10 16.09344 0 0
7:55 pm 19:55 Sunny 76 24.2 69 20.6 80 80 E 3 6 29.94 1014 10 16.09344 0 0
8:15 pm 20:15 Sunny 74 23.3 69 20.4 84 84 E 3 6 29.97 1015 10 16.09344 0 0
8:35 pm 20:35 Clear 72 22.4 69 20.6 90 90 Calm 29.97 1015 10 16.09344 0 0
8:55 pm 20:55 Clear 72 22.3 69 20.4 89 89 Calm 29.97 1015 7 11.265408 0 0
9:15 pm 21:15 Clear with Mist and Fog 71 21.5 68 20.2 92 92 Calm 29.97 1015 2 3.218688 0 0
9:35 pm 21:35 Clear 70 20.9 68 20.1 95 95 Calm 29.97 1015 10 16.09344 0 0
9:55 pm 21:55 Clear 70 21.1 68 19.9 93 93 Calm 30 1016 10 16.09344 0 0
10:15 pm 22:15 Clear 68 20 65 18.3 90 90 ESE 5 7 30.03 1017 10 16.09344 0 0
10:35 pm 22:35 Clear 67 19.4 66 18.9 97 97 SE 3 6 30.03 1017 10 16.09344 0 0
10:55 pm 22:55 Clear 68 19.8 66 18.7 93 93 Calm 30.03 1017 10 16.09344 0 0
11:15 pm 23:15 Clear 66 19 64 18 94 94 Calm 30.06 1018 10 16.09344 0 0
11:35 pm 23:35 Clear 65 18.2 64 17.8 98 98 Calm 30.06 1018 10 16.09344 0 0
11:55 pm 23:55 Clear 66 19 65 18.2 95 95 Calm 30.06 1018 10 16.09344 0 0

Powered by AerisWeather